Weather History for KIRS - April, 2013

Change the Weather History Date:

Wednesday, April 24, 2013

  Actual Average (KHAI) Record (KHAI)
Temperature  
Mean Temperature 38 °F -  
Max Temperature 42 °F 62 °F 85 °F (1960)
Min Temperature 33 °F 39 °F 25 °F (1967)
Degree Days  
Heating Degree Days 28    
Moisture  
Dew Point 32 °F    
Average Humidity 80    
Maximum Humidity 100    
Minimum Humidity 42    
Precipitation  
Precipitation 0.00 in - - ()
Sea Level Pressure  
Sea Level Pressure 29.94 in    
Wind  
Wind Speed 9 mph (NW)    
Max Wind Speed 20 mph    
Max Gust Speed 28 mph    
Visibility 8 miles    
Events Rain , Snow    
Averages and records for this station are not official NWS values.
T = Trace of Precipitation, MM = Missing Value Source: NWS Daily Summary

Daily Weather History Graph

Daily Weather History Graph

Search for Another Location

Airport or City:

Trip Planner

Search our weather history database for the weather conditions in past years. The results will help you decide how hot, cold, wet, or windy it might be!

Date:

Astronomy

Apr. 24, 2013 Rise Set
Actual Time 6:47 AM EDT 8:32 PM EDT
Civil Twilight 6:17 AM EDT 9:02 PM EDT
Nautical Twilight 5:41 AM EDT 9:38 PM EDT
Astronomical Twilight 5:03 AM EDT 10:17 PM EDT
Moon 7:34 PM EDT (4/24) 5:51 AM EDT (4/24)
Length of Visible Light 14h 44m
Length of Day
13h 45m
Waxing Gibbous, 98% of the Moon is Illuminated
Apr 24
Waxing Gibbous
Apr 25
Full
May 2
Last Quarter
May 9
New
May 18
First Quarter

Hourly Weather History & Observations

Time (EDT) Temp. Windchill Dew Point Humidity Pressure Visibility Wind Dir Wind Speed Gust Speed Precip Events Conditions
12:15 AM 42.8 °F 39.3 °F 42.8 °F 100% 29.82 in 4.0 mi North 5.8 mph - N/A Rain Light Rain
12:34 AM 42.8 °F 38.6 °F 42.8 °F 100% 29.83 in 10.0 mi NNW 6.9 mph - N/A Rain Rain
12:55 AM 42.8 °F 38.6 °F 42.8 °F 100% 29.80 in 7.0 mi North 6.9 mph - N/A Rain Rain
1:15 AM 42.8 °F 37.5 °F 42.8 °F 100% 29.82 in 7.0 mi NNW 9.2 mph - N/A   Drizzle
1:35 AM 42.8 °F 37.0 °F 41.0 °F 93% 29.82 in 4.0 mi NNW 10.4 mph 17.3 mph N/A Rain Light Rain
1:54 AM 42.8 °F 39.3 °F 41.0 °F 93% 29.82 in 7.0 mi NNW 5.8 mph - N/A Rain Light Rain
2:14 AM 42.8 °F 38.0 °F 41.0 °F 93% 29.82 in 5.0 mi NNW 8.1 mph - N/A Rain Rain
2:35 AM 42.8 °F 38.0 °F 41.0 °F 93% 29.81 in 7.0 mi North 8.1 mph - N/A Rain Rain
2:55 AM 42.8 °F 37.5 °F 41.0 °F 93% 29.80 in 10.0 mi North 9.2 mph - N/A Rain Rain
3:14 AM 42.8 °F 38.6 °F 41.0 °F 93% 29.80 in 4.0 mi NNW 6.9 mph - N/A Rain Light Rain
3:35 AM 41.0 °F 35.8 °F 39.2 °F 93% 29.81 in 4.0 mi NNW 8.1 mph - N/A Rain Rain
3:55 AM 41.0 °F 35.2 °F 39.2 °F 93% 29.82 in 5.0 mi NNW 9.2 mph - N/A   Drizzle
4:14 AM 41.0 °F 33.9 °F 39.2 °F 93% 29.82 in 5.0 mi North 12.7 mph 17.3 mph N/A Rain Light Rain
4:35 AM 39.2 °F 32.5 °F 37.4 °F 93% 29.82 in 3.0 mi NNW 10.4 mph 16.1 mph N/A Rain Light Rain
4:55 AM 39.2 °F 32.0 °F 37.4 °F 93% 29.83 in 2.5 mi North 11.5 mph - N/A Rain Light Rain
5:14 AM 37.4 °F 28.5 °F 37.4 °F 100% 29.83 in 3.0 mi North 15.0 mph 21.9 mph N/A Rain Rain
5:35 AM 37.4 °F 30.8 °F 35.6 °F 93% 29.84 in 4.0 mi North 9.2 mph 17.3 mph N/A Rain Light Rain
5:55 AM 35.6 °F 26.6 °F 35.6 °F 100% 29.85 in 10.0 mi North 13.8 mph 19.6 mph N/A   Overcast
6:14 AM 35.6 °F 28.6 °F 33.8 °F 93% 29.86 in 7.0 mi North 9.2 mph 17.3 mph N/A   Overcast
6:35 AM 35.6 °F 28.6 °F 33.8 °F 93% 29.87 in 4.0 mi NNW 9.2 mph - N/A   Overcast
6:55 AM 35.6 °F 27.1 °F 33.8 °F 93% 29.86 in 5.0 mi NNW 12.7 mph - N/A   Overcast
7:14 AM 35.6 °F 27.5 °F 33.8 °F 93% 29.87 in 5.0 mi NNW 11.5 mph 17.3 mph N/A   Overcast
7:35 AM 35.6 °F 29.2 °F 33.8 °F 93% 29.88 in 10.0 mi North 8.1 mph 16.1 mph N/A   Overcast
7:55 AM 33.8 °F 24.8 °F 33.8 °F 100% 29.87 in 10.0 mi North 12.7 mph 17.3 mph N/A   Overcast
8:15 AM 35.6 °F 27.1 °F 33.8 °F 93% 29.88 in 10.0 mi NNW 12.7 mph - N/A   Overcast
8:34 AM 35.6 °F 27.1 °F 33.8 °F 93% 29.89 in 10.0 mi North 12.7 mph - N/A   Overcast
8:55 AM 35.6 °F 27.5 °F 32.0 °F 87% 29.89 in 10.0 mi North 11.5 mph 16.1 mph N/A   Overcast
9:15 AM 35.6 °F 28.6 °F 32.0 °F 87% 29.88 in 10.0 mi North 9.2 mph - N/A   Overcast
9:34 AM 35.6 °F 27.1 °F 33.8 °F 93% 29.88 in 10.0 mi North 12.7 mph - N/A   Overcast
9:55 AM 35.6 °F 28.0 °F 32.0 °F 87% 29.88 in 10.0 mi North 10.4 mph - N/A   Overcast
10:15 AM 35.6 °F 30.7 °F 32.0 °F 87% 29.89 in 10.0 mi North 5.8 mph 9.2 mph N/A   Overcast
10:35 AM 35.6 °F 29.2 °F 32.0 °F 87% 29.88 in 10.0 mi North 8.1 mph - N/A   Overcast
10:55 AM 35.6 °F 29.9 °F 32.0 °F 87% 29.91 in 10.0 mi NNW 6.9 mph - N/A   Overcast
11:15 AM 35.6 °F 29.9 °F 32.0 °F 87% 29.93 in 10.0 mi NW 6.9 mph - N/A   Overcast
11:34 AM 35.6 °F 27.5 °F 32.0 °F 87% 29.93 in 7.0 mi NW 11.5 mph - N/A   Overcast
11:55 AM 35.6 °F 28.6 °F 32.0 °F 87% 29.94 in 2.0 mi NW 9.2 mph - N/A Snow Light Snow
12:15 PM 35.6 °F 27.5 °F 33.8 °F 93% 29.94 in 2.5 mi NW 11.5 mph 17.3 mph N/A Snow Light Snow
12:34 PM 35.6 °F 28.6 °F 33.8 °F 93% 29.94 in 2.5 mi NW 9.2 mph - N/A Snow Light Snow
12:55 PM 35.6 °F 29.2 °F 33.8 °F 93% 29.94 in 5.0 mi NW 8.1 mph - N/A Snow Light Snow
1:15 PM 35.6 °F 29.9 °F 33.8 °F 93% 29.94 in 7.0 mi NW 6.9 mph - N/A Snow Light Snow
1:34 PM 37.4 °F 32.8 °F 33.8 °F 87% 29.94 in 10.0 mi NNW 5.8 mph - N/A Snow Light Snow
1:55 PM 37.4 °F 29.8 °F 35.6 °F 93% 29.95 in 10.0 mi WNW 11.5 mph - N/A   Mostly Cloudy
2:15 PM 37.4 °F 29.8 °F 30.2 °F 75% 29.96 in 10.0 mi West 11.5 mph 21.9 mph N/A   Overcast
2:34 PM 39.2 °F 31.6 °F 32.0 °F 75% 29.97 in 10.0 mi WNW 12.7 mph - N/A   Mostly Cloudy
2:55 PM 39.2 °F 31.2 °F 32.0 °F 75% 29.97 in 10.0 mi WNW 13.8 mph 20.7 mph N/A   Mostly Cloudy
3:14 PM 39.2 °F 30.8 °F 30.2 °F 70% 29.98 in 10.0 mi WNW 15.0 mph 20.7 mph N/A   Mostly Cloudy
3:35 PM 41.0 °F 33.5 °F 30.2 °F 65% 29.98 in 10.0 mi West 13.8 mph 21.9 mph N/A   Mostly Cloudy
3:55 PM 41.0 °F 33.1 °F 30.2 °F 65% 29.99 in 10.0 mi WNW 15.0 mph 23.0 mph N/A   Mostly Cloudy
4:14 PM 41.0 °F 32.8 °F 28.4 °F 61% 30.00 in 10.0 mi WNW 16.1 mph 25.3 mph N/A   Mostly Cloudy
4:35 PM 41.0 °F 34.3 °F 28.4 °F 61% 30.01 in 10.0 mi WNW 11.5 mph 27.6 mph N/A   Scattered Clouds
4:55 PM 41.0 °F 33.1 °F 26.6 °F 57% 30.01 in 10.0 mi WNW 15.0 mph 23.0 mph N/A   Scattered Clouds
5:14 PM 42.8 °F 34.3 °F 26.6 °F 53% 30.02 in 10.0 mi West 19.6 mph 26.5 mph N/A   Scattered Clouds
5:35 PM 42.8 °F 34.8 °F 24.8 °F 49% 30.03 in 10.0 mi NW 17.3 mph 24.2 mph N/A   Scattered Clouds
5:55 PM 42.8 °F 36.2 °F 24.8 °F 49% 30.03 in 10.0 mi WNW 12.7 mph 24.2 mph N/A   Clear
6:14 PM 42.8 °F 35.8 °F 24.8 °F 49% 30.04 in 10.0 mi NW 13.8 mph 23.0 mph N/A   Clear
6:35 PM 42.8 °F 35.8 °F 21.2 °F 42% 30.06 in 10.0 mi WNW 13.8 mph 23.0 mph N/A   Clear
6:55 PM 42.8 °F 36.2 °F 21.2 °F 42% 30.06 in 10.0 mi NW 12.7 mph 20.7 mph N/A   Clear
7:14 PM 42.8 °F 37.5 °F 23.0 °F 46% 30.06 in 10.0 mi WNW 9.2 mph - N/A   Clear
7:35 PM 42.8 °F 37.0 °F 23.0 °F 46% 30.06 in 10.0 mi WNW 10.4 mph - N/A   Clear
7:55 PM 41.0 °F 37.1 °F 24.8 °F 53% 30.07 in 10.0 mi West 5.8 mph - N/A   Clear
8:14 PM 41.0 °F 37.1 °F 24.8 °F 53% 30.07 in 10.0 mi West 5.8 mph - N/A   Clear
8:35 PM 39.2 °F 35.9 °F 24.8 °F 56% 30.08 in 10.0 mi WSW 4.6 mph - N/A   Clear
8:55 PM 37.4 °F 33.8 °F 26.6 °F 65% 30.10 in 10.0 mi WSW 4.6 mph - N/A   Clear
9:14 PM 37.4 °F 33.8 °F 26.6 °F 65% 30.11 in 10.0 mi SSW 4.6 mph - N/A   Clear
9:35 PM 37.4 °F 34.9 °F 26.6 °F 65% 30.11 in 10.0 mi SSW 3.5 mph - N/A   Clear
9:55 PM 35.6 °F 30.7 °F 24.8 °F 65% 30.12 in 10.0 mi South 5.8 mph - N/A   Clear
10:54 PM 35.6 °F 31.7 °F 26.6 °F 70% 30.14 in 10.0 mi South 4.6 mph - N/A   Clear
11:15 PM 35.6 °F 31.7 °F 26.6 °F 70% 30.14 in 10.0 mi South 4.6 mph - N/A   Clear
11:35 PM 35.6 °F 31.7 °F 26.6 °F 70% 30.14 in 10.0 mi South 4.6 mph - N/A   Clear
11:54 PM 35.6 °F 31.7 °F 28.4 °F 75% 30.14 in 10.0 mi South 4.6 mph - N/A   Clear